Starlink 33611

operational
NORAD ID: 63279 Int'l Des: 2025-053 Owner: SPXS Country: US Constellation: starlink
LEOCIRCULAR

About Starlink 33611

Description loading...

Live Position

Loading 3D Globe...

Upcoming Passes

Altitude History

Altitude vs Time

uPlot chart will show altitude changes over time

Two-Line Element Set

1 63279U 25053Q 25260.92641897 .00025439 00000-0 93053-3 0 9999
2 63279 43.0004 133.8048 0002000 258.4416 101.6211 15.27587278 29925
Epoch: Sep 17, 2025 • Age: 7 hours

Current Status

Altitude 492.9 km
Velocity 7.62 km/s
Sub-Earth Point -37.94°S, 72.68°W
Launch Date Mar 15, 2025
Age 0.5 years
Type internet

Technical Details

Classification Payload
Mass 575.00 kg
Dry Mass 530.00 kg
Total Mass 575.00 kg
Length 0.30 m
Diameter 4.10 m
Span 29.00 m
Shape Box + pan
Manufacturer SPXS
Bus Type Starlink V2MO
Phase Status In Orbit
Owner/State SPXS/US

Large Constellations

Loading constellations...